Theta_e
315 317 318 318 319 319 318 319 320 323 323 323 323 325 326 328 328 328 329 330 329 328 329 329 327 326 326 325 325 326 327 328 329 330 330 330 330 329 328 328 329 328 327 328 327 324 325 323 321 321 321 320 320 319 319 319 319 318 316 315 315 315 315 317 316 314 312 312 312 314 315 316 316 316 317 317 316 315 315 314 313 313 312 312 312
317 317 318 318 319 320 320 318 317 320 322 323 322 323 325 326 327 328 329 329 329 329 329 328 329 328 326 325 325 326 326 325 326 328 329 330 329 329 328 328 329 328 326 327 326 326 325 324 321 321 321 321 320 319 319 317 318 318 318 316 316 315 314 316 317 316 312 311 308 310 310 312 315 315 316 317 317 316 315 313 312 312 311 311 311
314 316 316 317 318 320 319 318 318 319 320 322 322 323 324 325 326 327 328 329 329 329 329 328 329 329 328 326 326 325 327 327 327 327 328 329 329 329 328 328 328 328 327 325 326 326 326 325 322 321 321 320 319 319 319 319 319 318 318 317 314 315 315 316 316 317 312 310 309 307 304 307 310 312 315 317 317 316 314 312 311 310 311 310 310
312 313 314 315 315 317 318 317 317 317 317 317 321 323 324 324 325 326 327 329 329 329 327 329 329 329 329 327 327 326 325 326 327 327 327 328 327 328 328 328 328 328 328 326 325 326 326 325 324 322 321 321 320 318 318 319 319 318 318 317 316 313 314 314 317 317 315 312 306 307 303 303 300 307 311 314 316 316 314 314 311 311 310 309 309
312 312 313 314 314 315 316 318 317 316 316 316 318 321 324 324 325 326 326 327 329 327 327 328 328 326 327 326 325 325 323 324 324 324 325 325 326 327 327 328 328 328 329 328 325 325 326 326 324 323 322 321 320 319 319 319 319 319 319 317 316 315 313 314 315 317 316 316 311 304 302 303 303 302 310 310 313 313 313 314 312 311 309 308 308
313 313 314 314 314 314 315 316 317 316 316 317 318 319 321 323 325 326 326 326 327 328 328 328 327 326 325 324 322 322 321 321 321 322 322 323 324 326 326 327 328 328 328 328 326 325 325 325 324 323 322 321 320 320 319 319 319 319 319 319 317 316 315 314 313 315 317 316 315 311 308 304 303 305 305 301 308 314 313 313 313 312 311 308 308
313 314 314 313 313 314 315 315 316 317 317 318 318 318 319 321 323 325 326 326 327 327 328 326 326 326 326 325 324 323 322 322 324 324 324 324 324 324 325 326 327 327 327 328 327 325 325 325 325 324 323 322 320 320 319 319 319 319 319 319 318 317 315 312 313 314 315 316 316 315 313 311 310 306 303 302 300 304 307 309 310 311 311 309 308
312 313 314 314 314 314 314 314 315 317 317 318 318 319 318 318 320 323 324 324 326 327 327 327 326 326 325 325 324 324 323 322 323 323 324 324 324 324 324 325 326 327 327 327 327 326 325 325 325 325 324 323 321 320 320 320 319 319 319 319 318 317 316 313 312 314 313 314 316 315 313 313 312 311 307 308 301 297 302 304 305 308 309 310 310
309 310 313 314 314 314 313 313 314 314 315 317 317 317 318 319 319 321 323 324 325 326 326 327 325 325 326 325 324 324 324 324 323 323 323 323 323 324 324 324 325 326 326 326 326 327 324 325 325 325 325 324 321 322 321 321 319 319 318 318 317 317 317 316 313 313 314 314 314 313 314 313 312 311 311 310 307 303 304 303 302 302 305 306 308
309 310 312 313 314 313 314 314 314 313 315 317 317 316 317 317 318 319 321 323 324 325 325 326 326 324 325 325 325 325 324 324 323 323 322 323 322 323 324 324 324 325 325 326 326 326 326 324 325 325 325 325 321 322 322 321 321 320 319 319 318 317 317 316 315 313 314 315 315 314 312 311 310 310 310 310 309 310 308 304 303 302 301 304 305
309 312 312 313 313 313 314 312 312 312 314 316 315 315 315 317 317 318 319 321 323 324 325 325 326 325 324 325 325 325 324 323 323 322 322 322 322 322 323 324 324 324 325 325 326 326 326 324 324 324 325 323 322 323 323 322 322 321 321 320 319 318 317 317 315 315 313 313 315 314 313 312 311 309 309 310 309 307 307 308 307 303 304 304 303
310 310 310 311 312 311 311 310 310 310 311 312 313 315 314 315 315 315 317 319 321 322 324 325 325 325 324 324 324 325 324 324 322 322 323 322 322 322 323 323 323 324 325 324 325 326 325 325 324 324 323 324 324 324 324 324 323 323 322 321 320 319 319 317 317 316 315 313 313 315 315 314 314 313 312 312 311 309 309 308 308 307 304 305 305
310 310 311 311 310 309 310 310 310 311 311 311 312 313 314 313 313 313 313 315 319 321 322 324 324 324 325 324 323 324 324 324 324 323 323 323 323 322 322 322 323 323 324 324 324 325 325 325 324 323 323 323 324 324 325 324 324 323 322 321 321 320 320 319 318 317 316 315 314 314 316 315 315 315 314 313 313 312 311 309 309 307 308 307 308
310 311 310 310 310 310 311 311 311 311 312 313 312 311 313 314 312 312 312 313 316 319 321 322 324 324 325 324 324 323 323 324 325 324 324 324 324 323 323 323 322 323 323 324 325 325 325 325 325 324 324 324 323 324 324 324 324 323 322 322 321 321 321 320 320 319 318 317 317 314 314 315 316 316 315 314 313 312 311 310 308 306 308 309 305
308 309 309 310 310 310 311 313 311 311 312 311 311 311 311 311 312 312 311 311 313 315 318 320 322 324 324 324 324 323 323 323 324 325 325 324 324 324 324 324 323 324 324 324 324 325 325 325 325 325 324 324 323 323 324 324 323 323 322 322 321 322 321 320 320 320 319 318 317 316 315 314 315 316 316 315 315 314 313 312 310 307 303 302 303
307 309 310 310 310 310 312 312 311 309 309 310 310 309 310 310 310 310 311 311 312 312 314 318 320 323 324 324 324 323 322 322 322 323 324 325 325 324 324 324 324 324 324 324 324 324 325 325 324 324 325 324 323 323 323 323 323 323 322 322 321 322 321 320 320 319 319 319 319 318 317 315 315 315 315 315 316 316 315 314 312 310 307 303 298
309 310 310 310 309 309 311 310 309 307 306 307 309 309 309 309 309 310 310 309 310 311 312 314 317 319 322 323 323 323 323 322 322 322 322 324 324 324 324 324 324 324 325 324 324 324 325 324 324 324 324 324 324 323 323 323 323 322 321 321 321 321 320 320 320 319 319 319 319 318 317 317 316 315 315 315 315 314 315 315 315 313 311 308 304
309 310 310 309 309 310 310 309 308 308 306 305 306 306 307 308 308 308 308 308 309 310 311 312 313 315 319 321 322 323 323 323 322 322 322 322 322 323 324 323 323 324 324 324 324 324 324 320 324 323 324 324 323 323 323 323 322 322 322 321 322 321 320 320 320 320 319 318 317 317 317 317 316 316 316 314 314 314 313 314 314 314 313 311 309
308 310 309 309 307 307 308 308 307 307 305 304 305 306 305 305 305 306 307 307 308 309 309 311 313 315 318 319 321 322 322 323 323 322 321 321 321 322 322 323 323 323 322 322 322 323 323 323 323 323 323 322 323 323 322 322 322 321 321 321 321 321 320 319 320 320 320 319 318 317 317 317 317 317 316 316 314 313 313 312 313 313 312 313 312
307 307 306 306 306 306 307 305 304 305 303 303 304 303 304 304 304 304 305 305 305 306 307 308 309 312 315 317 319 321 321 322 322 321 321 321 321 321 322 321 322 322 322 323 322 322 322 322 322 322 322 322 322 322 322 322 321 321 320 320 320 320 320 319 319 320 320 320 319 318 317 318 318 317 317 317 317 316 315 314 314 314 314 315 313
305 305 306 306 305 304 304 304 304 304 303 302 303 304 304 303 303 303 304 304 304 305 306 307 308 309 310 313 316 318 319 321 321 321 321 322 322 320 322 322 321 322 322 322 322 322 322 322 322 321 322 321 321 321 321 321 321 320 320 320 319 319 319 319 319 319 319 319 318 317 317 318 318 317 317 316 317 317 316 315 314 314 314 313 314
304 305 305 305 304 304 304 305 304 302 303 302 304 304 303 304 304 303 303 304 304 305 305 306 307 309 310 312 314 316 318 320 320 321 321 321 322 322 321 320 320 322 321 322 322 322 322 322 322 322 321 321 321 321 321 320 320 319 319 320 319 318 318 318 318 317 317 318 317 316 316 316 316 316 316 315 315 315 314 314 313 313 314 313 313
305 305 304 305 305 305 303 303 304 304 304 303 303 304 304 304 304 303 303 303 303 304 305 306 307 308 310 311 314 315 317 317 319 320 320 320 320 319 319 319 320 320 320 321 321 321 321 321 321 321 321 321 321 321 321 320 320 319 318 318 319 318 317 317 317 316 317 316 316 315 315 315 316 315 314 315 314 314 314 314 314 313 313 313 312
305 305 305 306 305 303 301 301 304 304 304 304 303 303 303 304 304 302 302 303 302 303 303 304 306 307 309 310 311 312 313 313 315 317 317 317 318 317 318 318 319 318 319 319 319 320 320 320 320 320 320 320 319 319 319 318 320 318 318 318 317 317 318 317 317 316 315 315 315 314 314 314 314 314 314 313 314 314 313 313 313 313 313 313 313
304 304 305 304 303 302 302 302 303 304 304 303 303 303 303 303 302 302 303 302 302 301 301 302 302 304 306 307 308 309 309 310 312 313 313 313 312 315 316 317 317 317 318 317 317 317 318 318 320 319 319 317 318 318 319 319 319 319 319 319 318 318 317 317 317 316 310 315 314 314 314 313 313 312 312 312 313 312 312 312 312 312 311 312 311
303 303 303 303 302 302 301 300 302 304 304 302 302 304 303 302 303 301 301 300 299 298 299 299 299 301 303 304 305 306 308 309 310 311 312 311 313 312 315 315 316 318 316 316 316 315 317 316 315 316 316 316 316 316 316 318 318 318 318 318 318 317 317 317 316 316 315 315 314 314 314 313 312 312 311 311 311 311 312 312 311 311 311 309 307
303 303 303 303 302 302 302 302 303 303 301 301 302 304 303 301 302 300 299 299 299 298 297 297 297 298 301 302 303 305 307 308 309 310 310 311 312 310 311 313 310 312 313 313 311 312 310 312 314 314 315 316 317 316 318 318 318 318 318 318 317 317 317 317 316 316 316 315 315 315 314 314 313 313 312 312 311 310 310 310 310 310 309 307 303
302 303 303 303 302 301 300 302 303 304 302 302 303 304 302 301 302 300 299 298 301 298 296 296 296 297 298 300 301 303 304 307 308 308 309 309 309 309 310 310 308 311 312 312 312 313 310 310 314 315 316 315 317 318 318 318 319 319 318 317 317 316 316 316 316 316 316 315 315 315 315 314 314 314 313 313 312 311 311 310 310 309 308 304 303
301 302 302 300 300 301 301 300 301 300 300 301 302 302 301 300 300 299 298 298 297 297 296 295 295 297 298 299 299 301 303 305 305 306 307 308 308 308 307 308 309 310 311 311 313 314 312 313 314 315 316 316 317 318 318 318 318 318 319 318 318 317 316 315 315 315 315 315 315 315 315 315 312 304 303 304 306 306 311 308 307 306 303 300 300
299 300 301 300 300 300 300 300 300 301 301 300 301 302 302 302 302 299 298 299 298 297 296 295 296 297 298 298 298 299 301 302 303 305 305 304 303 303 304 304 307 308 308 308 309 311 313 316 316 316 316 317 318 319 309 306 307 316 318 318 318 316 316 315 314 314 314 314 315 315 313 302 300 299 299 300 301 301 302 308 310 305 301 299 298
298 298 299 299 298 299 299 300 301 301 301 304 304 304 303 301 299 299 299 300 297 298 295 295 297 297 297 297 298 298 299 299 301 302 302 301 303 301 302 303 303 303 304 301 303 309 312 315 316 316 316 316 317 317 307 306 305 305 313 317 316 316 315 315 314 314 313 311 312 312 314 305 299 297 298 298 300 300 300 300 301 301 301 303 298
297 299 299 298 298 299 299 299 300 301 301 302 303 301 298 300 300 300 300 298 297 297 297 297 296 296 297 297 297 297 297 298 298 299 299 298 296 297 299 301 301 300 300 296 301 306 309 311 313 314 314 315 315 305 305 305 304 304 304 313 317 316 315 315 314 313 313 312 309 307 306 308 305 304 304 302 299 298 299 299 299 299 298 298 300
297 298 297 298 300 301 301 301 299 301 301 301 300 299 299 299 299 299 298 297 297 297 296 296 297 296 296 296 296 296 297 297 297 296 295 294 294 295 296 297 298 299 295 300 304 305 305 306 308 310 311 312 312 305 304 303 303 303 303 305 315 316 315 314 314 313 313 312 307 304 303 303 305 295 297 301 301 300 295 295 296 296 295 296 298
298 298 298 298 299 300 301 300 300 299 298 297 297 297 298 297 298 297 296 296 296 296 296 296 296 296 296 296 296 295 295 296 295 294 291 291 292 294 293 292 292 292 296 298 298 299 301 303 305 306 307 309 309 304 303 302 301 301 302 303 311 313 314 314 313 312 312 309 305 302 302 301 298 296 297 298 299 299 298 296 295 296 296 294 294
297 297 298 300 300 299 298 298 299 298 297 297 297 296 297 296 296 296 296 295 295 294 295 295 295 296 295 295 295 295 295 295 294 292 291 291 291 291 290 289 289 291 293 295 295 295 298 298 300 301 303 304 307 302 302 301 301 300 301 301 308 311 312 313 313 310 308 307 305 305 303 302 300 298 297 297 298 298 296 295 295 294 295 295 295
298 298 298 297 296 296 296 296 297 297 297 296 295 295 295 294 294 294 294 294 294 294 293 293 294 294 295 295 295 295 294 293 293 292 291 291 290 290 290 288 288 290 291 292 293 294 295 295 296 297 298 300 301 300 300 299 299 300 300 302 306 308 309 309 309 305 302 302 301 301 301 300 300 299 295 294 296 296 295 292 291 292 292 292 293
297 296 296 296 294 294 294 294 294 294 295 295 294 294 294 293 292 293 293 293 293 293 294 294 294 294 294 294 295 295 294 293 292 292 291 291 290 290 289 288 289 289 289 290 291 292 293 294 294 294 296 297 298 297 297 298 298 299 299 302 303 303 304 304 304 302 301 300 300 301 300 300 299 298 295 295 296 295 294 291 291 291 290 290 291
293 293 293 292 292 293 294 293 293 293 292 291 289 292 292 291 292 292 292 292 293 293 294 293 294 294 294 294 294 293 293 292 292 292 292 291 291 289 289 288 289 289 288 289 289 290 291 292 293 294 295 295 296 295 296 296 297 297 298 301 301 300 300 300 300 299 298 298 297 293 294 300 299 299 296 295 295 294 293 291 291 290 289 289 288
292 292 292 292 293 292 290 289 289 291 292 290 288 289 290 289 289 290 290 291 291 292 292 292 292 293 292 292 292 292 292 291 291 292 292 291 291 290 290 289 288 288 289 288 287 289 290 291 292 292 290 293 294 293 294 295 295 296 295 299 299 299 298 298 299 299 296 296 295 292 291 294 297 297 296 296 295 293 294 292 291 290 290 289 289
290 291 290 290 290 290 290 290 290 290 289 289 287 288 286 287 288 287 288 289 290 291 291 291 291 291 291 291 291 290 290 290 290 290 290 290 290 289 289 289 287 287 289 288 287 290 290 291 291 291 292 292 293 294 293 294 295 295 296 296 297 297 297 297 297 297 297 293 293 293 292 293 296 296 296 296 295 294 295 294 293 291 291 290 289
290 289 288 289 289 289 289 289 289 289 288 287 287 287 287 287 287 287 287 288 289 289 289 289 289 289 289 289 289 288 288 288 288 289 289 289 288 289 288 287 288 287 287 288 288 289 290 290 291 291 291 291 292 292 292 293 294 295 295 295 295 295 297 297 297 295 296 296 294 293 293 292 294 295 295 295 294 294 294 293 292 293 293 293 289
288 288 288 286 286 287 287 287 288 289 288 287 286 286 286 286 286 287 287 288 288 288 287 287 287 286 286 287 287 287 287 287 287 287 287 288 287 287 288 287 287 287 287 288 288 288 289 290 290 291 291 291 291 290 292 291 293 294 294 294 294 295 294 295 295 295 295 296 296 294 293 291 292 293 294 294 294 294 294 291 292 294 294 292 288
287 288 288 288 288 288 288 288 289 289 289 288 287 286 285 285 286 286 287 287 287 287 286 286 285 285 285 285 286 286 286 287 287 287 287 287 287 287 287 286 286 287 287 288 288 288 288 289 290 291 291 291 291 290 289 290 291 292 293 294 294 294 295 294 295 295 295 294 293 293 292 290 291 292 293 294 294 294 293 292 293 293 292 290 288
286 287 289 288 288 288 288 288 288 288 288 288 288 288 287 286 286 287 286 286 286 286 285 285 285 285 285 285 285 286 286 286 286 286 286 286 287 287 286 286 286 287 288 288 288 288 289 289 289 290 290 291 292 291 289 289 289 291 292 293 293 293 293 293 294 295 296 295 294 292 292 291 291 291 292 293 293 293 291 293 293 293 290 288 287
285 286 287 287 288 288 288 288 287 287 288 288 288 287 287 287 288 288 287 287 286 286 285 285 285 285 285 286 286 286 285 285 285 285 286 286 286 286 286 286 285 287 288 288 288 288 289 289 289 289 290 290 290 291 291 289 288 289 291 292 292 292 293 293 292 292 292 294 293 292 292 291 290 291 292 292 292 291 292 292 291 290 287 288 287
285 285 286 287 287 287 287 287 287 287 287 287 287 287 287 287 288 288 287 286 286 285 285 285 285 285 285 285 285 286 286 285 286 285 285 285 286 286 286 286 285 286 287 288 288 288 288 288 289 289 290 290 290 290 290 290 288 288 288 289 290 290 289 290 290 292 290 291 291 292 291 290 289 289 289 289 288 288 289 288 288 287 287 287 287
284 284 285 286 286 286 286 286 285 286 286 287 287 287 287 287 287 287 286 286 285 285 284 284 284 285 285 285 285 285 286 286 286 286 285 285 285 285 285 286 285 285 286 287 287 288 288 288 288 289 289 289 289 289 290 290 289 289 289 288 288 288 288 288 289 290 289 289 289 289 289 288 288 288 288 288 288 287 287 287 287 286 287 287 287
283 283 282 283 285 285 285 285 285 286 287 286 286 286 286 286 286 286 286 285 285 285 284 284 284 284 284 285 284 285 285 285 286 286 286 286 285 285 285 286 286 286 286 286 287 287 287 288 288 288 288 289 289 289 289 289 289 289 289 289 289 289 289 289 290 290 289 287 287 286 287 287 287 287 286 286 286 286 286 286 286 286 286 286 286
283 282 282 283 283 284 284 284 285 286 286 286 286 286 286 286 286 286 285 284 284 284 283 283 283 284 284 284 284 284 284 284 285 286 286 285 286 286 286 286 286 286 287 287 287 287 287 287 287 288 288 288 288 288 288 289 288 289 289 289 288 289 289 289 288 289 287 286 286 286 286 286 286 286 285 285 285 285 284 285 284 285 285 285 285
282 283 282 283 281 282 283 284 285 285 285 285 285 286 286 285 285 284 283 283 283 283 282 282 282 283 283 284 284 284 285 285 285 285 286 286 286 287 287 287 287 286 287 288 288 288 288 288 288 289 288 289 289 289 290 290 290 290 290 290 290 290 290 289 289 290 288 287 286 286 286 286 286 286 285 284 284 284 284 283 283 284 284 284 284
282 283 283 283 283 282 282 282 284 284 284 284 284 285 285 285 285 284 283 282 282 282 282 282 282 282 282 283 283 283 284 285 285 286 286 286 286 288 288 288 288 287 287 287 288 288 288 288 288 289 289 290 289 289 289 290 290 289 290 290 290 290 290 290 290 288 287 288 287 286 285 286 286 286 286 285 284 284 283 283 282 282 283 283 283
Wind_Speed
5 7 7 7 7 7 9 9 9 9 9 9 9 9 10 11 9 11 11 10 9 10 10 10 11 9 8 10 11 10 10 10 9 10 10 10 11 11 11 9 10 11 11 12 11 9 9 8 8 8 8 8 8 9 8 8 8 9 8 7 8 7 7 7 6 4 3 3 4 5 6 6 6 6 7 7 7 7 7 7 7 7 7 7 7
6 6 7 6 7 7 6 7 7 8 9 9 9 10 11 11 11 11 9 11 11 12 10 10 11 12 12 13 11 10 10 10 11 10 11 10 11 11 10 10 11 11 11 11 11 10 10 9 8 10 9 8 8 7 8 8 8 8 7 7 6 8 6 6 7 5 5 6 5 4 5 4 6 7 7 7 7 7 7 7 7 8 8 7 6
7 8 8 8 8 8 7 7 7 9 8 9 9 7 8 9 10 9 9 11 12 12 11 12 11 11 11 10 11 9 9 9 9 8 8 10 11 11 11 11 12 12 11 12 11 11 11 11 10 9 11 10 9 9 9 10 9 10 10 9 7 5 5 4 7 10 8 4 2 1 4 5 6 6 6 9 9 7 6 7 7 7 8 7 7
7 7 8 8 8 8 8 8 8 7 7 6 7 9 9 9 9 9 10 11 11 12 12 12 12 11 10 8 8 9 8 7 8 7 9 11 12 12 12 12 13 13 12 12 11 11 12 12 11 9 11 11 11 10 11 11 10 10 9 10 8 7 7 8 7 8 7 7 5 9 3 2 4 7 9 7 8 8 7 8 6 7 7 7 6
7 6 8 8 8 8 9 10 8 8 8 9 8 9 8 10 10 11 11 11 10 11 12 10 8 7 7 5 5 6 4 6 8 9 11 12 11 12 15 13 14 14 13 13 13 12 11 11 10 10 9 10 11 11 11 12 12 11 11 10 11 10 9 7 7 8 10 9 7 4 2 4 6 3 5 6 6 6 7 9 8 8 8 8 8
10 12 12 10 8 6 6 6 8 8 9 9 8 9 7 8 9 11 10 9 10 11 12 10 10 10 9 9 10 9 10 9 13 15 13 13 15 12 10 13 14 13 13 13 13 12 12 12 11 10 10 9 10 11 10 9 11 12 13 12 12 11 9 8 7 8 11 12 11 6 7 6 4 4 4 5 3 8 7 9 10 10 9 8 7
10 11 9 7 6 6 6 5 6 7 9 7 8 8 9 8 8 11 11 10 10 9 11 11 11 11 13 13 13 13 13 12 10 9 10 10 8 10 11 11 12 14 13 12 12 13 12 12 12 11 10 9 9 9 10 11 11 12 10 11 12 11 9 9 10 9 7 9 11 13 10 5 2 3 6 2 2 4 4 6 8 9 8 8 9
8 8 9 8 8 7 7 6 5 7 6 6 8 7 9 10 8 9 8 9 9 9 11 13 13 12 12 12 12 12 13 11 10 10 9 8 9 11 10 10 12 13 13 12 12 12 12 12 12 12 11 10 9 10 11 10 9 9 11 12 10 10 12 12 10 8 12 10 11 12 12 10 6 5 3 7 5 3 5 4 4 7 7 8 9
6 6 7 9 8 6 5 5 5 5 4 5 7 7 7 7 8 8 9 9 9 11 11 12 12 12 12 11 12 11 11 10 7 9 9 9 10 10 10 10 11 12 13 12 12 13 12 13 13 12 12 11 10 10 10 11 12 11 11 11 12 11 11 12 10 9 10 11 9 10 9 10 10 8 5 4 6 4 6 7 7 4 5 7 8
5 5 5 6 5 5 5 4 4 5 5 5 5 5 5 5 7 8 9 9 9 10 11 11 12 11 12 12 14 12 10 9 8 9 10 9 11 10 10 10 10 11 13 13 13 13 13 13 13 14 14 12 10 11 11 12 11 11 12 13 13 13 10 11 13 11 9 9 11 9 10 8 7 7 8 8 7 8 9 7 7 9 10 9 8
2 2 3 2 2 3 3 5 6 4 4 4 5 5 5 5 6 7 9 8 7 9 9 11 11 12 13 14 15 15 12 10 10 10 9 9 11 11 11 11 10 11 11 12 14 12 12 13 14 14 13 12 12 12 12 12 12 12 11 12 13 14 11 12 12 12 10 9 10 11 12 12 13 12 12 11 11 9 8 11 8 9 12 9 8
4 5 3 2 2 3 3 5 5 5 5 5 5 5 5 5 5 7 7 7 6 7 8 10 10 12 12 13 13 12 10 9 12 12 11 11 11 11 9 8 10 10 10 11 12 14 13 13 13 13 12 13 14 12 11 12 11 11 10 10 11 13 12 12 11 12 13 11 11 10 12 12 12 12 9 10 11 12 10 10 10 5 5 8 2
1 3 3 3 4 4 4 5 5 4 5 5 5 5 6 5 6 6 8 6 7 7 8 10 11 12 12 12 11 10 10 11 10 10 9 10 9 9 9 10 9 9 11 12 13 15 13 13 13 13 13 13 13 13 13 13 11 11 11 12 12 13 13 13 12 14 14 13 13 11 10 11 12 11 8 9 9 8 9 11 9 6 10 6 6
0 0 1 2 4 4 4 5 5 3 3 4 4 5 5 5 5 7 8 5 6 7 8 9 10 11 10 10 11 10 10 10 11 11 10 10 9 9 10 10 10 12 12 12 12 12 13 13 13 13 13 13 13 13 13 12 12 12 12 13 14 13 12 14 14 13 12 14 11 10 11 10 11 10 10 9 10 9 10 12 8 6 7 10 4
2 2 3 3 3 3 3 3 3 3 3 4 4 4 4 4 5 6 7 6 6 7 7 9 9 9 10 10 10 10 11 10 11 10 10 10 10 10 10 10 11 11 11 11 10 12 13 12 13 14 14 14 13 13 11 12 12 11 11 13 12 11 13 13 13 14 14 14 13 13 12 11 10 8 9 11 10 11 11 10 9 9 6 5 6
2 1 0 1 3 3 1 1 2 4 4 3 3 4 4 5 5 5 6 6 6 6 7 8 9 8 9 11 12 11 10 10 10 10 10 10 11 11 11 11 11 10 10 10 11 11 12 13 14 14 14 14 14 14 13 11 12 12 11 11 13 10 12 14 13 13 15 15 15 12 10 12 10 9 8 8 9 9 9 8 9 10 11 10 4
0 1 1 3 3 2 1 1 1 3 5 4 3 3 4 4 5 6 6 5 5 5 6 6 7 7 9 9 9 10 11 11 12 12 12 10 10 10 11 11 9 9 9 8 10 11 12 13 13 14 14 14 13 13 13 13 12 12 12 12 13 11 11 13 12 12 12 12 12 13 12 10 10 9 7 8 7 7 9 9 10 12 10 10 9
2 2 2 2 1 1 1 1 1 2 4 5 4 3 3 4 4 5 5 6 6 6 7 6 6 7 8 9 10 11 11 11 10 10 9 9 10 10 9 9 10 9 7 7 8 10 11 12 13 13 13 13 14 13 13 14 13 12 12 12 12 11 11 10 11 11 11 10 11 11 11 11 9 9 9 7 7 8 8 9 9 9 9 12 10
2 0 0 1 4 3 1 0 0 1 3 5 5 4 4 4 4 5 6 6 6 5 5 6 6 6 6 9 9 10 10 10 9 9 8 9 10 9 9 10 8 8 8 7 8 8 9 10 11 11 11 12 12 12 13 13 13 12 12 12 12 12 12 11 10 11 10 9 10 11 10 11 10 10 8 8 8 7 8 7 8 8 8 10 10
3 3 5 4 3 2 2 3 2 2 4 5 5 5 5 4 4 5 5 5 6 6 7 7 7 7 8 7 7 7 8 9 9 8 9 10 11 10 10 9 11 9 8 9 8 9 9 10 10 11 11 11 12 12 12 13 12 12 12 11 11 12 13 12 11 11 9 10 12 13 12 11 10 9 9 9 9 9 7 7 7 7 8 8 7
5 4 2 1 3 4 6 7 4 2 3 4 5 5 5 4 4 4 5 5 5 7 5 7 7 7 7 8 8 6 7 7 7 9 10 11 11 11 11 11 7 9 10 9 9 10 10 10 10 11 11 11 12 12 11 11 12 12 12 12 11 12 13 12 11 12 11 11 12 13 12 12 11 11 10 9 9 10 8 7 6 6 8 6 7
4 1 1 1 3 4 5 8 6 4 5 5 5 5 5 4 3 4 4 5 5 6 5 6 5 7 7 8 8 7 8 7 8 9 11 11 10 10 9 7 9 10 9 10 10 10 9 10 10 10 11 11 11 12 11 11 12 12 12 10 11 13 13 13 12 13 13 12 11 12 12 11 11 12 10 10 9 9 9 8 7 8 9 8 7
2 1 1 1 2 3 4 6 7 6 6 6 5 5 5 3 2 4 4 6 5 6 5 5 5 6 7 8 7 7 6 7 8 8 9 9 9 8 7 8 9 9 7 9 9 8 9 9 10 10 11 11 12 11 11 11 12 12 12 12 12 12 13 13 13 14 13 12 12 12 13 10 10 11 11 11 10 11 10 11 12 9 10 10 8
1 0 0 0 1 2 5 6 8 8 7 6 5 5 4 2 3 4 5 6 5 4 5 5 5 6 7 7 7 7 7 7 8 8 8 8 8 8 7 8 9 7 9 8 7 8 8 9 10 10 11 11 11 11 11 10 12 12 12 13 12 12 12 13 13 13 12 12 13 12 12 12 11 13 12 11 11 11 10 11 11 11 12 13 11
1 1 2 2 2 4 6 6 6 7 7 6 6 6 6 5 4 5 5 5 5 4 4 5 5 6 7 7 7 7 7 8 8 8 9 8 7 9 8 8 8 8 7 7 8 7 8 8 10 10 10 10 11 11 11 11 10 10 12 12 13 13 12 13 13 13 12 12 13 13 13 12 12 13 12 12 11 13 12 11 11 10 10 10 9
1 4 3 4 5 6 6 6 6 7 6 5 6 8 7 5 5 5 5 5 5 4 4 5 5 5 7 7 8 7 9 9 9 8 9 8 8 7 8 7 7 9 8 8 8 7 8 9 8 8 8 10 10 10 10 11 11 10 10 12 12 12 13 13 13 13 13 14 15 15 14 13 14 14 13 11 11 14 13 13 14 12 11 9 10
4 4 4 8 8 7 8 6 6 7 6 6 7 9 7 6 6 6 5 5 5 4 4 4 5 5 6 7 7 8 9 9 9 9 8 7 8 7 7 8 6 7 7 8 6 7 6 7 8 7 9 9 9 9 10 10 11 11 12 12 12 12 12 13 13 14 14 14 14 14 14 14 15 14 14 13 12 12 11 12 11 12 12 10 10
6 8 9 9 9 6 6 6 6 7 6 7 7 8 6 6 6 6 5 4 4 4 4 5 5 5 6 8 7 7 8 8 9 8 7 7 6 6 7 7 6 8 8 8 8 8 7 6 7 8 8 7 8 9 10 11 11 12 11 12 12 13 13 12 13 13 13 13 14 14 13 14 14 14 13 13 13 13 11 13 12 11 11 11 11
8 8 7 6 7 7 7 6 7 6 7 7 7 6 5 6 6 6 4 5 4 4 5 5 5 6 8 7 7 6 7 7 8 7 8 7 7 6 6 6 7 8 9 8 8 8 8 8 7 7 7 7 8 10 9 10 11 12 12 13 13 13 12 12 13 12 12 12 13 14 14 14 14 15 17 16 16 15 12 11 10 10 10 9 9
7 7 7 6 7 7 7 6 7 7 6 6 5 6 7 7 8 5 5 6 5 5 5 5 5 7 8 7 7 6 7 7 7 9 8 7 6 6 6 6 7 7 7 7 7 8 9 11 11 10 9 9 11 11 13 17 15 12 11 11 11 12 12 12 12 12 12 13 14 12 12 16 18 19 20 20 19 18 18 15 12 10 10 10 10
7 7 7 6 6 6 6 7 8 6 7 7 7 7 7 6 6 6 6 7 6 6 5 5 7 7 7 7 7 7 6 8 8 8 8 7 7 6 6 7 7 6 6 5 4 7 10 10 11 12 12 12 13 13 19 18 19 20 16 13 12 12 11 12 12 13 13 12 12 12 11 13 14 14 16 18 18 19 19 19 18 16 15 14 11
6 7 6 5 5 6 7 7 7 7 7 6 7 6 5 6 7 7 7 6 6 6 7 8 8 7 7 8 7 7 7 8 7 8 7 6 6 6 7 7 7 7 7 5 7 8 6 6 8 8 10 12 11 13 15 17 18 19 17 14 12 12 11 12 12 13 12 11 11 11 10 9 10 11 10 12 15 19 19 19 19 18 18 20 18
5 8 7 6 9 9 7 6 5 5 5 6 5 6 7 6 7 7 7 6 7 7 7 8 8 8 9 8 7 7 7 8 8 7 6 6 6 7 8 8 10 8 5 8 10 9 9 7 8 10 11 11 11 13 15 17 17 18 19 17 13 13 12 12 12 12 12 12 10 10 10 9 8 13 11 9 9 10 13 16 16 16 17 18 17
12 11 7 8 7 4 4 4 4 4 4 5 5 5 5 5 5 6 6 7 6 7 7 8 8 8 9 9 8 7 8 8 7 7 6 6 6 8 7 6 5 4 7 8 8 10 10 10 11 11 11 11 11 14 16 16 16 17 18 17 14 14 13 12 12 12 12 11 10 9 9 9 7 7 7 8 9 9 9 8 9 9 9 13 16
11 9 5 5 4 5 5 6 6 6 5 6 7 6 7 8 8 9 7 7 6 6 6 7 7 8 8 8 8 8 9 9 8 7 6 6 6 7 7 5 5 7 7 9 8 9 10 10 10 10 10 12 13 15 14 15 14 15 16 15 12 12 13 13 12 11 10 10 10 11 12 12 10 10 10 12 10 10 9 9 9 9 9 9 10
5 5 4 5 5 5 5 5 6 7 6 5 5 6 7 7 7 7 8 7 7 6 6 5 6 7 7 7 7 8 8 8 8 8 7 7 7 7 8 6 5 6 6 7 8 8 10 9 9 9 10 13 13 15 15 15 15 14 15 12 11 12 13 12 12 9 8 8 8 9 9 9 9 10 13 17 15 10 10 9 10 9 8 7 7
5 5 5 5 5 5 5 4 5 5 6 5 5 6 6 6 7 7 7 7 7 7 7 6 6 6 7 8 8 9 9 9 8 8 8 8 8 8 7 5 7 7 7 8 8 8 8 8 9 9 11 13 12 12 14 16 15 15 12 10 10 10 11 12 11 9 9 9 10 10 10 9 9 9 12 16 17 14 9 11 10 10 8 6 7
5 5 6 6 5 5 6 6 6 6 5 5 5 6 6 6 6 6 7 8 7 7 7 8 8 8 8 8 8 8 9 9 9 9 9 9 8 7 7 5 7 7 8 8 6 8 7 7 9 10 9 11 12 10 12 14 14 15 13 11 9 9 11 10 10 9 9 9 9 13 12 11 11 12 14 17 17 15 10 10 10 10 9 8 6
5 6 7 8 8 6 5 5 5 6 7 6 5 6 6 6 5 6 5 6 6 7 8 10 11 10 10 8 7 7 7 8 9 9 9 10 9 8 7 5 6 6 8 5 5 7 7 7 8 9 11 12 12 10 10 12 14 14 12 10 9 8 10 11 10 11 7 7 8 10 16 14 12 12 16 18 19 16 12 11 11 11 12 12 11
4 5 5 5 6 8 8 8 8 7 5 6 5 5 5 6 7 5 6 7 7 7 7 8 9 10 9 10 8 9 8 7 9 10 9 9 8 8 7 7 6 5 7 6 5 7 9 9 7 8 9 10 11 10 8 12 13 14 15 11 7 9 12 11 9 9 7 6 7 7 10 15 17 15 15 17 18 20 14 11 10 12 13 14 8
5 4 4 4 5 5 5 6 6 6 5 5 4 5 6 6 6 6 7 7 7 7 8 8 8 9 9 10 9 7 10 9 6 8 9 8 7 8 8 7 8 7 6 7 6 7 8 10 7 7 8 9 9 10 9 12 13 14 16 15 9 11 10 8 8 7 9 9 8 8 7 10 13 14 14 16 17 19 17 11 13 13 15 13 14
2 5 5 4 4 5 5 5 5 6 5 5 4 4 4 5 6 8 7 6 7 8 8 8 9 9 8 8 8 8 7 8 8 8 9 9 6 6 7 7 7 7 8 9 7 7 8 10 8 8 8 9 8 12 10 11 14 14 15 17 11 10 8 6 9 9 9 9 9 7 7 8 12 13 13 14 16 17 19 9 12 13 8 12 13
5 5 4 3 5 5 5 5 5 5 5 5 4 5 5 5 7 8 6 6 7 8 8 9 9 9 8 8 7 8 9 7 8 8 8 10 8 7 7 5 6 7 8 10 9 8 9 10 10 8 7 8 8 8 13 11 12 14 14 15 16 13 12 10 11 12 11 8 6 6 6 9 14 15 15 15 16 18 16 12 14 13 11 16 13
3 3 6 4 4 4 5 3 3 4 5 5 6 7 7 8 8 6 6 6 7 8 9 10 10 10 10 9 8 8 7 7 7 8 7 8 9 7 6 5 6 6 8 9 9 7 8 10 11 11 8 7 7 7 9 13 11 13 12 13 14 15 15 11 10 10 8 7 8 6 8 12 14 15 16 16 17 16 12 16 14 15 15 15 10
4 5 5 4 7 9 8 6 2 3 4 4 4 5 7 9 10 8 9 9 9 9 10 10 11 11 11 11 11 9 8 7 6 6 8 8 8 6 8 5 3 5 6 9 10 7 9 10 10 11 11 8 6 6 7 8 12 12 13 13 13 14 15 15 11 8 6 6 7 11 13 13 14 15 15 15 13 15 16 14 15 15 15 9 10
3 4 5 5 6 7 7 10 8 3 4 3 3 4 7 9 8 8 8 8 9 10 11 11 10 10 11 11 12 12 9 7 7 6 6 6 7 7 7 7 5 6 6 7 9 8 9 9 10 11 11 10 7 6 6 5 6 8 9 11 12 13 13 13 13 10 9 8 9 10 11 11 10 9 6 4 5 6 9 9 11 12 8 7 8
5 5 5 6 6 8 9 8 11 7 5 4 4 3 4 5 6 7 6 6 7 8 10 10 11 12 11 10 11 10 11 10 8 7 6 6 6 6 6 7 6 6 7 7 8 9 9 9 11 11 10 10 9 7 7 6 5 5 6 6 8 8 9 10 8 6 5 3 1 4 5 7 7 8 5 2 2 5 6 7 7 7 6 7 8
2 5 5 5 6 8 10 11 11 10 7 6 5 5 4 4 5 5 7 7 8 7 9 10 12 11 10 10 10 12 12 11 10 9 10 9 6 6 7 7 7 7 7 8 7 8 8 8 10 10 10 10 9 7 5 6 7 5 6 6 6 6 6 6 7 6 5 4 3 5 7 6 6 7 6 6 5 5 5 5 5 6 5 4 5
6 5 4 5 6 9 9 9 10 9 9 8 7 6 5 7 8 8 8 9 10 9 8 9 9 9 10 9 8 9 10 10 11 10 8 7 9 9 8 9 6 7 7 8 9 9 8 7 8 9 9 11 10 8 7 6 8 8 8 7 6 7 6 6 7 7 4 2 3 4 5 6 7 9 8 8 8 7 6 6 6 6 4 5 5
5 5 5 6 5 6 9 9 9 7 7 8 7 7 6 5 6 5 4 6 7 8 8 8 7 8 8 9 9 9 9 9 9 10 12 12 7 11 11 9 10 7 12 13 11 11 9 7 9 9 6 10 11 9 10 11 11 12 13 14 13 12 11 8 8 14 9 6 6 7 7 8 8 8 9 10 10 9 9 8 7 7 6 6 6
6 8 8 6 6 6 7 7 8 6 5 6 7 8 8 7 7 7 5 5 6 8 8 8 8 8 9 10 10 9 9 8 9 9 9 11 14 9 10 14 15 14 14 14 15 17 17 14 10 12 9 13 16 17 16 16 13 12 13 13 14 14 13 11 10 9 7 9 9 10 8 7 7 7 8 9 9 9 10 9 9 8 8 9 8
Wind_Direction
228 226 232 230 225 207 201 204 204 203 208 208 207 203 200 197 189 196 193 187 183 186 188 186 189 193 200 203 209 205 204 200 201 201 202 207 205 206 207 210 208 205 207 207 214 211 207 204 196 197 199 194 194 203 200 201 199 201 206 201 201 207 220 207 216 188 220 257 238 229 238 227 218 209 212 213 211 208 203 200 200 196 202 196 200
229 241 240 236 232 225 209 201 200 201 211 210 212 207 203 200 197 199 183 189 194 192 191 191 192 195 193 200 201 199 196 199 206 202 204 203 204 205 207 212 216 213 206 206 208 210 207 209 200 196 197 204 201 195 197 201 203 203 195 208 206 203 216 193 202 165 235 211 211 260 270 270 232 220 216 218 213 212 205 197 197 197 200 201 202
223 226 227 229 230 225 213 207 205 205 204 206 213 213 211 208 207 196 194 192 198 196 191 198 198 198 196 200 197 202 205 204 204 200 198 206 206 206 208 211 213 218 210 204 205 207 208 207 209 195 195 198 197 200 198 203 205 204 198 199 202 215 214 205 194 189 216 183 196 338 251 239 273 250 236 220 213 217 201 201 199 200 207 201 199
230 226 230 228 225 220 214 215 209 205 215 216 212 212 210 209 205 201 203 200 199 200 200 201 200 199 201 196 196 196 197 190 191 189 199 207 210 205 209 210 211 216 214 203 206 206 206 208 208 203 199 195 197 199 200 204 202 206 200 197 178 196 204 221 200 194 186 143 216 213 226 199 284 235 216 229 213 215 198 210 196 209 211 209 198
236 240 239 236 230 223 211 213 201 202 209 214 213 212 213 207 205 206 207 206 202 200 201 199 193 196 196 195 183 197 194 173 177 203 205 209 210 208 211 205 209 213 213 206 201 206 206 209 210 211 206 199 196 200 202 203 200 202 199 195 193 195 201 205 214 197 199 195 179 130 231 228 222 231 188 250 216 220 213 205 204 208 211 207 203
239 240 239 238 238 242 236 209 199 207 211 213 209 216 211 207 202 206 210 207 204 200 197 194 196 192 186 189 196 196 204 190 197 200 200 203 208 210 206 205 208 212 213 208 200 201 204 206 209 209 212 207 201 202 204 201 203 201 201 198 201 202 193 189 207 211 203 206 214 210 165 174 184 218 129 259 244 218 212 208 207 212 214 210 211
236 238 242 248 248 245 244 227 198 204 220 205 206 212 213 212 204 204 207 210 205 200 192 195 202 200 199 200 202 202 204 212 209 205 205 211 207 206 207 206 207 210 215 210 202 198 203 203 206 210 212 212 201 201 204 205 204 204 197 199 203 199 194 203 201 201 203 218 215 229 245 242 196 122 210 132 297 283 230 205 217 214 212 211 213
228 226 228 224 227 223 233 233 225 220 214 199 207 207 208 214 211 208 206 206 205 199 195 197 203 204 205 207 208 213 212 213 202 207 205 199 204 207 203 207 206 210 214 213 205 198 199 203 205 209 213 213 201 205 207 207 205 205 202 204 202 199 199 207 207 190 192 213 207 219 234 246 240 224 189 187 174 180 250 263 247 214 217 216 211
235 232 212 202 207 219 224 232 235 234 226 202 211 207 206 210 214 213 211 207 206 200 200 201 203 206 208 208 213 218 217 217 202 202 203 198 205 203 203 204 205 209 213 216 209 204 198 202 202 207 211 214 206 209 208 206 205 201 200 201 203 204 203 207 207 206 198 206 188 219 220 231 239 239 229 218 218 219 245 205 224 247 242 230 216
243 231 195 177 180 199 211 218 235 233 230 224 218 207 207 206 214 217 223 215 208 205 202 203 203 205 212 214 216 217 212 214 203 204 204 197 207 204 203 203 203 205 210 215 216 209 203 200 202 206 209 211 208 209 207 207 207 206 203 204 204 205 205 203 208 212 209 203 198 195 204 218 232 244 237 224 235 214 231 219 196 195 219 228 210
256 113 99 127 174 199 209 227 240 253 247 232 229 210 212 212 218 224 229 225 215 210 202 207 204 205 215 217 217 219 213 210 211 215 203 199 208 207 202 204 201 205 203 211 215 213 211 204 205 207 206 208 210 210 208 207 206 207 207 204 205 205 205 205 210 215 215 208 201 198 205 201 202 208 211 210 214 218 225 243 227 199 212 235 221
135 136 148 185 224 251 250 254 261 253 254 246 234 229 226 228 227 236 243 231 225 215 206 210 209 212 219 223 225 226 219 217 218 218 211 210 210 209 205 199 206 206 204 207 209 210 209 210 208 207 207 207 210 211 211 208 206 206 206 204 207 209 208 207 209 214 214 217 216 202 208 205 212 217 210 203 203 220 210 229 230 195 234 234 198
120 143 156 176 207 238 254 263 272 266 244 240 233 225 230 236 234 239 248 240 233 221 214 210 208 213 215 219 226 226 224 224 225 225 219 218 213 212 205 209 205 206 211 207 209 205 205 209 206 206 209 210 210 208 212 209 206 206 207 208 208 206 208 207 210 214 210 213 218 214 208 209 216 217 207 204 212 208 207 231 230 177 228 229 216
129 158 208 239 246 254 249 252 258 258 253 246 246 236 231 230 234 237 248 236 235 231 226 223 219 219 217 218 222 221 226 224 225 225 221 220 215 215 210 212 212 214 213 213 209 203 207 209 208 210 211 212 211 212 211 209 208 208 207 210 211 211 208 209 215 218 217 221 219 221 220 214 218 211 209 204 207 197 212 220 221 220 220 240 214
256 219 212 222 255 263 255 241 264 281 260 261 270 267 257 250 244 246 256 249 241 238 233 231 227 220 218 219 220 218 222 223 225 224 222 220 219 221 217 213 215 216 214 215 204 202 206 208 209 210 209 210 209 212 213 210 209 212 212 213 215 212 212 210 214 215 218 219 220 219 223 225 225 209 202 208 203 206 207 207 197 223 249 238 235
239 191 212 287 273 284 242 214 272 303 298 275 275 282 286 272 262 258 257 256 246 248 243 235 233 225 219 219 220 218 220 222 226 224 225 220 221 221 223 220 220 218 217 211 208 201 202 207 209 212 210 210 208 208 210 210 208 210 213 215 218 211 215 212 216 215 219 219 223 222 222 228 226 224 210 206 208 206 205 201 198 207 221 247 220
158 142 229 260 293 316 173 182 275 306 316 311 281 263 260 271 277 277 276 279 271 262 257 250 244 234 233 228 225 224 222 221 224 225 224 224 224 224 226 226 225 219 219 209 208 205 204 205 208 210 212 210 209 207 208 210 210 210 211 214 219 216 217 217 217 220 222 217 221 219 221 225 226 226 222 216 212 207 207 204 200 206 205 227 233
191 199 207 236 277 322 135 182 209 274 304 311 296 276 262 257 264 276 283 277 274 269 266 261 254 247 243 237 230 226 225 226 226 229 229 228 227 229 229 229 226 224 217 211 206 206 208 205 209 211 212 212 211 208 207 209 210 214 212 214 215 214 218 219 220 221 222 216 218 218 217 224 221 221 225 219 219 218 210 208 204 209 194 215 227
130 120 197 26 15 12 50 270 212 251 300 297 290 277 266 261 254 251 262 261 263 264 265 265 256 251 243 238 233 231 227 226 225 226 226 229 231 231 229 231 233 225 218 215 211 207 207 208 209 212 211 214 214 212 209 211 209 214 213 216 213 213 217 220 220 221 223 216 218 218 214 221 216 221 218 220 224 219 222 212 214 204 206 218 225
103 73 40 19 358 342 312 312 320 296 307 300 290 287 277 259 252 259 264 268 271 267 263 267 265 261 260 256 247 236 231 227 224 219 222 226 228 227 226 226 225 219 218 216 211 208 206 206 206 209 210 211 213 214 212 213 212 215 212 214 213 211 216 219 220 221 223 222 225 225 221 222 219 222 221 220 224 226 218 214 215 211 216 214 207
81 58 9 339 337 338 336 340 337 295 290 287 281 272 268 262 258 257 263 270 265 261 257 258 261 262 265 263 257 250 242 232 228 221 223 225 227 225 227 227 219 220 217 214 213 213 212 209 205 206 208 209 210 212 211 211 212 215 214 215 214 214 218 221 220 225 223 224 225 226 225 225 222 225 223 221 225 227 222 225 218 214 220 205 208
99 92 336 343 343 332 340 344 335 329 307 301 286 278 275 268 253 256 260 265 264 270 256 259 257 257 258 259 260 253 245 239 236 234 231 232 230 228 228 227 223 227 215 217 215 216 214 213 211 210 211 213 212 213 211 210 212 213 214 212 214 214 220 222 219 225 223 225 223 224 223 220 218 225 219 219 220 224 223 225 222 222 225 222 209
109 90 306 335 327 319 329 330 315 298 289 282 287 276 266 270 278 262 253 269 252 260 261 257 260 260 259 259 260 258 252 248 242 241 242 240 239 235 222 221 226 228 221 218 217 215 214 214 215 215 215 217 217 216 213 213 215 214 215 216 217 216 219 220 220 221 221 219 221 221 222 216 216 222 220 220 213 220 218 220 223 216 227 227 215
154 258 349 254 274 318 342 323 310 305 299 290 278 277 272 312 280 263 264 270 272 260 261 264 266 266 264 266 262 257 257 254 251 248 247 244 237 233 225 225 226 223 223 224 216 216 216 215 218 219 215 216 218 219 217 214 214 214 218 221 221 221 221 222 222 221 218 214 218 220 221 215 212 218 219 217 216 214 214 222 224 218 218 221 220
40 331 284 289 316 314 295 287 290 291 285 285 292 295 326 312 294 281 269 263 263 259 257 265 266 271 274 269 266 263 256 251 249 250 251 248 243 237 230 228 225 227 225 222 227 222 223 219 221 220 219 217 217 216 218 218 218 215 217 221 221 221 221 221 221 220 215 214 215 217 217 211 211 219 217 216 212 212 212 215 220 221 223 223 221
272 270 291 295 288 288 283 277 277 278 272 278 298 316 310 297 284 263 262 277 271 254 246 263 272 274 276 271 267 266 258 251 244 245 245 246 245 240 237 237 226 231 229 225 224 223 222 226 226 223 220 220 216 212 213 216 217 217 220 221 221 219 218 218 217 216 214 213 215 216 215 208 209 213 218 217 215 218 216 216 217 217 219 218 217
241 245 279 302 303 290 281 276 269 266 263 282 305 302 295 290 289 286 272 254 257 245 247 254 267 267 274 272 267 260 257 257 249 241 241 241 239 237 235 236 228 228 228 229 226 227 228 224 228 224 223 221 219 213 214 214 215 217 219 221 222 222 220 219 217 215 216 216 218 219 217 213 214 214 216 214 214 216 212 218 217 218 217 212 213
288 292 295 289 285 283 280 274 274 267 273 292 288 279 276 284 293 297 290 273 263 251 256 254 255 265 264 267 261 259 259 257 260 255 241 237 237 237 235 235 227 229 227 225 222 220 224 216 224 222 224 219 222 220 220 221 220 221 221 224 224 223 224 223 222 221 218 218 219 221 222 219 218 216 215 217 212 217 215 220 216 217 215 210 213
272 268 268 268 276 284 281 277 272 274 283 286 287 291 305 310 309 300 297 287 262 236 248 251 258 259 265 263 265 263 258 259 257 263 261 250 239 237 239 235 230 231 227 224 219 216 218 221 223 225 228 219 221 225 223 223 227 229 227 229 228 227 227 229 230 229 228 228 227 225 223 222 221 221 216 213 211 210 212 219 216 211 209 203 212
268 271 270 268 272 276 275 281 288 286 289 293 291 296 302 306 302 299 315 300 296 264 251 261 253 255 262 265 264 263 261 259 258 251 253 256 251 247 246 248 244 240 236 227 220 217 217 223 224 225 226 228 229 229 223 220 218 220 226 230 232 231 228 230 232 234 233 231 231 231 232 227 220 215 213 213 214 213 213 212 207 202 202 204 206
287 281 272 270 274 271 279 287 286 287 290 296 294 296 307 306 303 306 299 291 302 290 270 257 261 259 261 264 264 262 258 258 253 255 251 246 248 247 250 254 259 264 264 264 243 227 227 224 223 224 227 228 231 230 225 220 220 218 219 224 226 229 228 229 230 230 233 230 231 229 230 223 224 224 221 217 214 217 220 221 219 203 199 197 199
262 265 278 287 271 266 267 269 277 287 291 292 306 318 329 317 311 314 305 307 312 297 289 282 272 271 266 263 261 264 263 261 261 258 257 253 249 243 241 243 253 261 263 283 268 250 260 255 250 245 238 237 238 239 231 230 225 224 222 227 232 233 230 230 229 229 231 230 226 225 225 221 212 209 207 219 223 225 222 220 221 216 209 206 197
255 270 282 289 286 278 266 260 272 301 323 327 335 337 328 324 329 318 326 329 314 301 291 285 283 283 281 278 276 275 273 274 270 268 267 264 253 253 249 240 235 232 244 250 252 258 257 254 248 245 244 242 244 237 230 231 230 227 225 224 234 234 234 234 230 229 229 227 219 213 218 217 216 209 209 207 207 224 236 234 229 221 212 206 207
285 292 288 274 288 307 329 350 1 346 339 327 339 329 316 326 325 325 332 319 317 309 301 294 292 287 288 292 294 290 281 276 278 277 270 261 256 253 259 268 280 265 241 242 243 245 250 247 246 248 252 251 248 245 235 235 231 229 227 223 233 236 238 238 233 228 226 225 215 211 215 219 211 205 206 207 207 215 216 220 221 214 213 214 209
299 314 0 26 23 18 15 9 359 343 337 346 340 342 341 342 339 329 324 321 314 304 305 302 299 294 292 293 293 291 289 288 285 279 273 260 255 264 269 265 259 251 248 248 245 242 242 245 248 248 253 253 250 248 245 242 236 231 230 226 235 236 238 239 238 234 231 225 215 212 209 209 202 205 202 201 208 208 204 207 207 208 208 203 203
33 41 28 25 23 25 14 349 329 341 335 342 343 346 347 324 323 319 317 319 315 315 308 305 305 304 303 300 298 295 293 292 290 285 275 267 260 253 259 253 248 250 248 254 255 246 249 245 243 243 247 253 253 247 246 244 239 235 229 229 234 237 239 241 241 234 225 220 217 213 215 216 208 207 206 203 205 197 197 200 200 206 207 204 210
18 31 26 12 10 6 343 336 330 324 330 346 349 343 332 323 326 320 319 318 325 327 327 328 324 321 319 316 313 307 303 300 295 291 283 275 271 269 262 245 254 252 248 244 248 250 255 256 252 243 244 253 259 246 241 244 239 234 230 236 234 237 240 241 241 234 228 223 215 207 205 209 210 216 210 203 205 190 196 194 196 198 197 194 206
10 15 9 3 358 354 339 347 336 335 325 341 350 339 330 328 321 318 323 324 331 330 333 334 329 329 325 322 316 310 306 302 300 295 290 284 276 271 265 237 243 259 255 250 250 256 248 246 252 255 247 258 261 250 237 241 237 233 229 238 237 237 243 239 245 236 231 228 222 213 209 207 207 212 204 202 198 188 193 191 190 184 183 192 200
20 22 1 347 341 338 325 334 344 343 331 341 351 344 334 324 316 317 320 323 326 330 336 334 327 324 321 319 315 313 310 308 305 299 295 292 287 278 273 250 247 250 258 261 253 260 265 253 247 251 252 252 264 262 242 242 235 233 230 239 240 241 246 242 236 243 233 231 228 218 214 213 214 213 201 200 194 187 194 188 186 179 191 197 192
1 5 347 330 329 342 346 352 347 332 331 335 343 349 331 316 319 322 333 331 328 327 324 320 316 316 317 317 319 319 314 314 309 305 300 289 287 292 284 276 267 252 263 259 254 257 266 265 251 249 251 243 253 258 238 239 238 235 229 230 235 237 243 245 241 242 241 235 232 231 226 223 220 213 205 202 196 190 193 193 180 188 191 206 168
344 327 336 335 326 322 311 314 311 316 330 326 341 349 329 323 325 334 332 322 317 322 321 316 313 312 312 312 313 314 312 311 305 300 299 298 296 288 287 283 279 276 271 272 261 261 265 271 262 251 252 247 240 252 243 229 237 233 232 228 236 235 245 249 249 243 235 235 228 226 229 225 225 222 211 205 200 199 199 190 192 195 200 191 163
311 314 322 316 307 309 309 314 312 320 319 321 334 348 323 332 337 334 319 314 324 320 318 317 313 307 303 303 306 308 304 303 307 311 312 307 298 285 284 284 281 281 280 278 276 272 271 271 268 253 253 255 240 232 248 233 230 232 229 226 229 239 232 246 252 250 241 237 233 219 224 209 212 221 220 209 204 202 200 196 205 207 176 147 166
332 328 312 310 321 317 317 308 316 322 322 317 336 343 339 338 339 319 317 326 322 322 319 315 309 307 308 307 306 308 310 313 309 309 307 307 311 310 299 291 289 290 286 286 284 283 281 281 281 270 257 253 245 239 233 237 231 232 235 236 236 239 231 226 237 246 242 238 224 218 214 205 211 214 210 208 207 204 198 206 205 191 166 155 146
300 288 298 310 300 294 304 314 311 315 319 320 337 343 339 342 329 317 323 322 327 327 326 322 319 317 316 316 317 313 307 302 301 303 304 301 308 308 301 300 297 293 295 292 290 287 281 280 284 283 270 256 245 236 234 231 234 230 234 235 238 237 232 229 231 242 241 222 219 211 209 204 211 214 210 204 206 204 203 204 193 184 162 155 154
303 316 307 315 315 315 316 316 334 313 316 319 331 340 335 337 328 334 330 333 332 331 329 325 323 322 321 321 319 316 312 305 300 301 307 308 305 307 307 300 290 285 283 286 287 290 283 285 287 284 291 288 278 265 255 234 228 231 230 232 235 238 239 235 238 244 238 233 223 216 206 204 209 212 213 213 212 209 208 201 188 172 159 161 164
321 319 320 313 312 312 315 316 325 334 310 308 324 345 337 320 321 324 324 330 331 330 329 326 321 320 321 319 318 318 314 309 307 300 286 279 283 294 293 295 291 277 274 275 285 289 286 287 286 287 289 292 288 280 272 259 236 232 234 236 237 239 241 239 235 241 233 232 227 215 209 210 207 199 186 188 191 195 193 181 167 162 169 170 168
328 310 323 330 328 322 321 321 318 323 323 314 312 297 281 291 307 310 314 317 323 324 322 324 325 322 320 320 317 319 318 318 318 312 298 287 278 273 274 276 272 275 273 272 273 280 284 282 284 287 290 291 286 281 278 278 265 258 249 240 239 248 239 236 237 236 232 214 184 188 181 169 155 166 169 178 184 176 172 172 172 179 183 180 176
303 307 319 321 327 321 322 321 317 317 318 315 316 309 294 302 309 318 321 324 325 329 327 322 319 316 315 319 317 315 318 316 318 320 316 313 290 270 271 265 267 259 272 277 272 272 271 277 284 286 290 290 286 284 273 266 262 254 263 253 247 235 224 222 221 215 194 172 149 134 130 129 133 135 139 134 147 166 179 178 184 189 187 180 185
329 322 338 330 322 318 308 309 306 309 313 317 310 304 313 327 329 331 332 330 321 320 317 309 307 309 310 313 311 313 314 312 310 311 298 286 297 300 283 278 237 234 238 257 277 268 264 266 269 279 290 290 286 284 278 250 250 237 239 252 254 251 234 220 209 180 138 120 133 152 161 157 161 165 163 166 164 166 176 182 178 181 182 179 175
315 321 328 318 305 296 299 300 299 300 305 306 307 309 311 312 310 305 306 306 307 309 310 308 307 306 307 310 310 308 306 304 307 308 311 306 259 251 269 273 286 251 240 243 242 262 267 275 277 267 246 271 284 289 297 284 256 245 239 239 245 247 240 230 199 175 167 176 189 194 193 181 179 181 183 177 172 170 170 177 189 179 174 181 186
324 323 316 308 299 292 289 292 294 305 301 300 302 307 309 312 312 307 309 304 311 310 308 308 311 308 309 307 304 303 304 302 301 304 306 306 313 299 251 260 263 267 268 264 261 262 267 263 259 281 271 256 275 287 289 285 271 250 242 241 243 248 245 233 196 169 189 198 197 196 196 198 200 193 195 192 180 177 181 174 180 178 180 180 180